Location: Borovka
(49.7741°N, 14.5280°E)
Time: 03:29:24
(UTC+00:00)

ESTCUBE 1 - Pass Details

Date: 15 March 2026
Orbit: 620 x 631 km, 97.7° (Epoch: 13 April)

Event Time Altitude Azimuth Distance (km) Brightness Sun altitude
Exits shadow 18:44:05 27° 80° (E) 1,220 ? -16.3°
Maximum altitude 18:44:43 28° 65° (ENE) 1,188 ? -16.4°
Drops below altitude 10° 18:48:27 10° 6° (N) 2,018 ? -17.0°
Sets 18:50:53 0° 355° (N) 2,932 ? -17.4°
